Location: Capannuccia
(43.7000°N, 11.3000°E)
Time: 09:49:03
(UTC+00:00)

STARLINK-27 - Pass Details

Date: 07 June 2020
Orbit: 434 x 435 km, 53.0° (Epoch: 05 July)

Event Time Altitude Azimuth Distance (km) Brightness Sun altitude
Exits shadow 00:32:41 - 109° (ESE) 1,707 6.1 -21.1°
Enters shadow 01:30:18 -69° 235° (SW) 12,388 10.4 -16.5°
Maximum altitude 02:08:01 69° 142° (SE) 470 3.2 -12.4°
